User: anonymous   Login
Location: Unspecified
(30.8073°N, 0.0000°E)
Time: 21:42:08
(UTC+00:00)
Language:

XW-2D - Orbit

View from above orbital plane
View from above orbital plane
View from above satellite
View from above satellite

Ground track
Ground track

The orbit data is extracted from the following two-line orbital elements,

1 40907U 15049J   19261.40231094  .00000687  00000-0  39236-4 0  9999
2 40907  97.4681 261.6564 0012621 236.4890 233.5481 15.15945692220907
Epoch (UTC): 18 September 2019 09:39:19
Eccentricity: 0.0012621
inclination: 97.4681°
perigee height: 509 km
apogee height: 527 km
right ascension of ascending node: 261.6564°
argument of perigee: 236.4890°
revolutions per day: 15.15945692
mean anomaly at epoch: 233.5481°
orbit number at epoch: 22090

The dashed part of the orbit path shows where the satellite is in the earth's shadow,  

DLR